Flag for Germany Weather past 2 weeks in Fürth, Bavaria, Germany

Now
75 °F

Sunny.


Feels Like: 78 °F
Forecast: 57 / 84 °F
Wind: 1 mph from North

Location: Nuernberg

Current Time: Aug 2, 2015 at 9:31:46 PM

Latest Report: Aug 2, 2015 at 8:50 PM


Visibility: 10 mi

Pressure: 30.07 "Hg

Humidity: 41%

Dew point: 50 °F

Location of FürthLocation

Historic Weather in Fürth — Graph

°F

Fürth temperature yesterday

Maximum temperature yesterday: 68 °F (at 10:50 AM)
Minimum temperature yesterday: 55 °F (at 5:50 AM)
Average temperature yesterday: 63 °F

Past Weeks' High & Low Weather Summary

 TemperatureHumidityPressure
High97 °F (Jul 22, 3:50 PM)100% (Jul 23, 1:50 AM)30.12 "Hg (Jul 23, 1:50 AM)
Low43 °F (Jul 31, 5:50 AM)22% (Jul 22, 4:20 PM)29.68 "Hg (Jul 25, 12:50 AM)
Average68 °F62%29.93 "Hg
* Reported Jul 18 8:20 PM — Aug 2 8:20 PM, Fürth, Weather by CustomWeather, © 2015

Note: Actual official high and low records may vary slightly from our data, if they occured in-between our weather recording intervals... More about our weather records

Advertising

Fürth weather history for previous 24 hours

 ConditionsComfort  
Time TempWeatherWind HumidityBarometerVisibility
8:20 PM
Sun, Aug 2
79 °FSunny.2 mph37%30.07 "Hg10 mi
7:50 PM81 °FPassing clouds.3 mph32%30.07 "HgN/A
7:20 PM81 °FPassing clouds.3 mph32%30.07 "HgN/A
6:50 PM81 °FSunny.2 mph34%30.07 "Hg10 mi
6:20 PM81 °FPassing clouds.3 mph32%30.07 "HgN/A
5:50 PM81 °FSunny.2 mph32%30.07 "Hg10 mi
5:20 PM81 °FPassing clouds.6 mph32%30.07 "HgN/A
4:50 PM82 °FPassing clouds.7 mph30%30.07 "HgN/A
4:20 PM82 °FPassing clouds.7 mph28%30.07 "HgN/A
3:50 PM82 °FPassing clouds.10 mph30%30.07 "HgN/A
3:20 PM84 °FSunny.7 mph27%30.07 "Hg10 mi
2:50 PM82 °FPassing clouds.6 mph26%30.09 "HgN/A
2:20 PM82 °FSunny.6 mph28%30.09 "Hg10 mi
1:50 PM81 °FSunny.5 mph30%30.09 "Hg10 mi
1:20 PM81 °FSunny.3 mph30%30.09 "Hg10 mi
12:50 PM79 °FSunny.3 mph32%30.09 "Hg10 mi
12:20 PM79 °FSunny.5 mph32%30.09 "Hg10 mi
11:50 AM77 °FSunny.6 mph39%30.09 "Hg10 mi
11:20 AM75 °FPassing clouds.6 mph47%30.12 "HgN/A
10:50 AM72 °FSunny.3 mph57%30.12 "Hg10 mi
10:20 AM70 °FSunny.3 mph60%30.12 "Hg10 mi
9:50 AM66 °FPassing clouds.5 mph68%30.12 "HgN/A
9:20 AM64 °FSunny.3 mph73%30.12 "Hg10 mi
8:50 AM63 °FPassing clouds.5 mph77%30.09 "HgN/A
8:20 AM61 °FSunny.1 mph83%30.09 "Hg10 mi
7:50 AM57 °FSunny.3 mph94%30.09 "Hg10 mi
7:20 AM55 °FSunny.2 mph94%30.09 "Hg10 mi
6:50 AM54 °FFog.2 mph94%30.09 "HgN/A
6:20 AM54 °FFog.1 mph94%30.07 "HgN/A
5:50 AM54 °FFog.1 mph94%30.07 "Hg4 mi
5:20 AM54 °FFog.3 mph100%30.07 "Hg4 mi
4:50 AM55 °FFog.3 mph94%30.07 "Hg4 mi
4:20 AM55 °FFog.1 mph94%30.07 "Hg6 mi
3:50 AM57 °FFog.1 mph94%30.07 "Hg6 mi
3:20 AM57 °FFog.2 mph94%30.04 "HgN/A
2:20 AM55 °FClear.6 mph94%30.04 "Hg10 mi
1:50 AM57 °FClear.2 mph94%30.04 "Hg10 mi
1:20 AM59 °FClear.5 mph88%30.04 "Hg10 mi
12:50 AM59 °FClear.1 mph88%30.04 "Hg10 mi
12:20 AM61 °FClear.2 mph88%30.04 "Hg10 mi
11:20 PM
Sat, Aug 1
61 °FClear.3 mph83%30.04 "Hg10 mi
10:50 PM63 °FClear.2 mph77%30.04 "Hg10 mi
10:20 PM63 °FClear.2 mph77%30.01 "Hg10 mi
9:50 PM63 °FSunny.1 mph77%30.01 "Hg10 mi
9:20 PM64 °FSunny.1 mph73%30.01 "Hg10 mi
Weather by CustomWeather, © 2015

See weather overviewHow to use our weather pages